This is the latest recevied weather packets stored in our database for station/object K3HW. If no packets are shown the sender has not sent any weather packets the latest 10 day(s).
| Time | Temp. | Humidity | Pressure | Rain* | Wind** | Luminosity | Snow |
|---|---|---|---|---|---|---|---|
| 1778174424 | 16.11° C | 40% | 1013.5 hPa | 0 mm | - | 74 W/m² | - |
| 1778174119 | 16.11° C | 41% | 1013.9 hPa | 0 mm | - | 71 W/m² | - |
| 1778173817 | 16.11° C | 39% | 1013.7 hPa | 0 mm | - | 130 W/m² | - |
| 1778173513 | 16.11° C | 42% | 1013.9 hPa | 0 mm | - | 57 W/m² | - |
| 1778173210 | 16.11° C | 45% | 1014 hPa | 0 mm | - | 477 W/m² | - |
| 1778172906 | 15.56° C | 45% | 1014 hPa | 0 mm | - | 631 W/m² | - |
| 1778172603 | 15.56° C | 47% | 1014.3 hPa | 0 mm | - | 498 W/m² | - |
| 1778172299 | 15.56° C | 42% | 1014.2 hPa | 0 mm | - | 64 W/m² | - |
| 1778171995 | 15.56° C | 45% | 1014.3 hPa | 0 mm | - | 784 W/m² | - |
| 1778171693 | 16.11° C | 44% | 1014.3 hPa | 0 mm | - | 106 W/m² | - |
| 1778171390 | 16.11° C | 47% | 1014.5 hPa | 0 mm | - | 247 W/m² | - |
| 1778171085 | 16.11° C | 40% | 1014.6 hPa | 0 mm | - | 810 W/m² | - |
| 1778170783 | 16.11° C | 43% | 1014.5 hPa | 0 mm | - | 784 W/m² | - |
| 1778170479 | 16.11° C | 42% | 1014.4 hPa | 0 mm | - | 839 W/m² | - |
| 1778170176 | 15.56° C | 46% | 1014.4 hPa | 0 mm | - | 784 W/m² | - |
| 1778169872 | 15.56° C | 46% | 1014.5 hPa | 0 mm | - | 774 W/m² | - |
| 1778169567 | 15.56° C | 46% | 1014.7 hPa | 0 mm | - | 784 W/m² | - |
| 1778169264 | 15° C | 46% | 1014.6 hPa | 0 mm | - | 771 W/m² | - |
| 1778168961 | 15.56° C | 44% | 1014.7 hPa | 0 mm | - | 761 W/m² | - |
| 1778168658 | 15° C | 43% | 1015 hPa | 0 mm | - | 776 W/m² | - |
| 1778168355 | 14.44° C | 46% | 1014.8 hPa | 0 mm | - | 752 W/m² | - |
| 1778168051 | 14.44° C | 46% | 1014.8 hPa | 0 mm | - | 751 W/m² | - |
| 1778167748 | 13.89° C | 46% | 1015 hPa | 0 mm | - | 717 W/m² | - |
| 1778167444 | 13.89° C | 44% | 1015 hPa | 0 mm | - | 187 W/m² | - |
| 1778167140 | 15° C | 46% | 1015.2 hPa | 0 mm | - | 143 W/m² | - |
* Rain latest hour (hover to see other rain measurements)
** Current wind speed in m/s (hover to see current wind gust speed)